Temperature
17 17 17 17 17 17 17 17 17 17 17 17 17 17 17 17 17 17 17 17 17 17 16 16 16 16 16 16 15 15 15 15 15 15 15 14 14 14 14 14 14 14 14
17 17 17 17 17 17 17 17 17 17 17 17 17 17 17 17 17 17 17 17 16 16 16 16 16 16 16 15 15 15 15 15 15 15 14 14 14 14 14 14 14 14 14
17 17 17 16 16 16 16 17 17 17 17 17 17 17 17 17 17 17 17 17 16 16 16 16 16 16 15 15 15 15 15 15 15 15 15 14 14 14 14 14 14 14 14
17 16 16 16 16 16 16 16 17 17 17 17 17 17 17 17 17 17 16 16 16 16 16 16 16 15 15 15 15 15 15 15 15 15 15 14 14 14 14 14 14 14 14
16 16 16 16 16 16 16 16 16 16 16 17 16 16 16 16 16 16 16 16 16 16 16 16 15 15 15 15 15 15 15 15 15 15 14 14 14 14 14 13 13 13 13
16 16 16 16 16 16 16 16 16 16 16 16 16 16 16 16 16 16 16 16 16 16 16 15 15 15 15 15 15 15 15 15 14 14 14 14 14 14 14 13 13 13 13
16 16 16 15 15 15 16 16 16 16 16 16 16 16 16 16 16 16 16 16 16 16 15 15 15 15 15 15 15 15 15 14 14 14 14 14 14 14 13 13 13 13 13
15 15 15 15 15 15 15 15 15 15 15 15 15 15 15 15 15 15 15 15 15 15 15 15 15 15 15 15 15 15 14 14 14 14 14 14 14 14 13 13 13 13 13
15 15 15 15 15 15 15 15 15 15 15 15 15 15 15 15 15 15 15 15 15 15 15 15 15 15 15 15 14 14 14 14 14 14 14 14 14 14 13 13 13 13 13
14 14 15 14 14 14 14 15 15 15 15 15 15 15 15 15 14 14 15 15 15 14 14 14 14 14 14 14 14 14 14 14 14 14 14 14 14 14 13 13 13 13 13
14 14 14 14 14 14 14 14 14 14 14 14 14 14 14 14 14 14 14 14 14 14 14 14 14 14 14 14 14 14 14 14 14 13 13 13 13 13 13 13 13 13 13
14 14 14 14 14 14 14 14 14 14 14 14 14 14 14 14 14 14 14 14 14 14 14 14 14 14 13 13 13 13 13 13 13 13 13 13 13 13 13 13 13 13 13
13 13 13 13 13 13 13 13 13 13 13 13 13 13 13 13 13 13 13 13 13 13 13 13 13 13 13 13 13 13 13 13 13 13 13 13 13 13 13 13 12 12 12
13 13 13 13 13 13 13 13 13 13 13 13 13 13 13 13 13 13 13 13 13 13 13 13 13 13 13 13 13 13 13 13 13 13 13 13 12 12 12 12 12 12 12
13 13 13 13 13 13 12 12 12 12 12 12 12 12 12 12 12 12 12 12 12 12 13 13 13 13 13 13 12 12 12 12 12 12 12 12 12 12 12 12 12 12 12
13 12 12 12 12 12 12 12 12 12 12 12 11 12 12 12 12 12 12 12 12 12 12 12 12 12 12 12 12 12 12 12 12 12 12 12 12 12 12 12 12 12 12
12 12 12 12 12 12 12 12 11 11 11 11 11 11 11 11 11 11 11 11 11 11 11 11 11 11 11 11 11 12 11 12 11 11 11 11 11 11 11 11 11 11 11
12 12 12 12 12 12 12 11 11 11 11 11 11 11 11 11 11 11 11 11 11 11 11 11 11 11 11 11 11 11 11 11 11 11 11 11 11 11 11 11 11 11 11
12 12 12 11 11 11 11 11 11 11 11 11 11 10 10 10 10 10 10 10 10 10 10 10 10 10 10 10 10 10 10 11 11 11 11 11 11 11 11 11 11 11 11
11 11 11 11 11 11 11 11 11 11 10 10 10 10 10 10 10 10 10 10 10 10 10 10 10 10 10 10 9 10 10 10 10 10 10 11 10 10 10 10 10 10 10
11 11 11 11 11 11 10 10 10 10 10 10 10 10 9 9 9 9 9 9 9 9 9 9 9 9 9 9 9 9 9 9 10 10 10 10 10 10 10 10 10 10 10
10 10 11 10 10 10 10 10 10 10 10 10 9 9 9 9 9 9 9 9 9 9 9 9 9 8 9 8 8 7 7 8 8 9 9 9 9 9 9 9 9 9 9
10 10 10 10 10 10 10 10 10 9 9 9 9 9 9 8 8 8 8 8 8 8 8 8 8 8 8 8 8 7 7 7 7 8 8 9 9 9 9 9 9 9 9
10 10 10 10 10 10 9 9 9 9 8 8 8 8 8 8 8 8 8 8 7 7 7 8 8 8 7 7 7 7 7 7 7 7 7 8 8 8 8 8 8 9 8
10 10 9 9 9 9 9 9 8 8 8 8 8 8 8 8 8 8 7 7 7 7 7 7 7 7 7 7 7 7 7 7 7 6 6 7 7 8 8 8 8 8 8
9 9 9 9 9 9 8 8 8 8 8 7 7 7 7 7 7 7 7 7 7 7 7 7 7 7 7 7 7 7 6 6 6 6 6 7 7 7 8 8 8 8 8
Wind_Speed
2 3 4 6 8 9 9 9 9 10 10 10 10 10 10 10 10 9 9 9 8 8 8 9 9 9 9 9 9 9 9 9 8 8 9 9 9 9 9 10 9 9 10
3 3 5 7 8 9 9 9 9 9 9 9 9 9 9 9 9 9 8 8 7 7 7 8 9 9 9 9 9 8 9 8 9 8 8 8 8 8 9 9 9 8 9
3 3 5 8 8 9 9 9 9 9 9 8 8 8 8 8 8 8 7 7 6 6 6 7 7 8 8 9 8 8 8 8 9 8 7 5 6 6 8 8 8 8 8
4 4 6 8 8 8 9 9 8 8 8 8 7 7 7 7 7 7 6 6 6 6 6 6 6 7 8 8 8 8 8 8 8 7 6 5 4 6 7 8 8 8 8
4 5 7 9 8 8 8 8 8 7 7 7 6 6 6 6 6 6 6 6 6 5 5 5 5 6 7 7 7 7 8 7 7 7 6 4 3 5 7 7 8 8 8
5 5 7 9 9 9 8 8 7 7 7 6 6 6 5 5 5 5 5 5 5 4 4 5 5 5 6 6 7 7 7 7 7 6 5 4 4 5 6 6 7 7 7
4 5 7 9 9 8 8 8 7 6 6 6 6 5 4 4 4 4 4 4 4 4 4 3 4 4 5 6 6 6 6 6 7 5 4 4 5 5 6 6 6 6 7
5 4 6 8 8 8 8 8 7 7 6 6 5 5 5 4 4 4 4 3 3 3 3 3 3 3 4 4 5 6 7 6 6 5 4 5 6 6 6 6 6 6 6
4 4 4 5 6 7 7 8 8 7 6 5 5 5 4 4 3 3 3 3 3 2 2 2 3 3 3 4 4 6 7 7 6 5 5 5 6 7 7 7 7 7 7
3 2 2 4 4 4 5 6 6 6 7 6 5 4 4 4 3 3 3 2 2 1 1 2 2 2 2 2 4 4 6 7 6 6 5 6 7 8 8 8 7 8 8
1 0 1 2 2 3 3 4 5 5 5 5 5 5 4 3 2 2 2 2 1 1 0 1 2 1 1 2 3 4 5 5 6 6 6 8 9 9 9 9 9 8 9
2 2 2 2 2 2 2 3 3 3 3 4 4 4 3 3 2 2 1 1 1 1 1 1 1 1 1 1 2 3 3 4 5 6 7 10 10 11 11 10 10 10 10
3 2 2 2 2 2 2 2 2 2 2 2 3 3 3 2 2 2 1 0 1 1 0 1 1 0 1 1 1 2 3 3 4 6 8 10 12 12 12 12 12 11 12
4 4 3 3 3 3 2 2 2 1 1 1 1 1 2 1 1 1 0 1 0 1 1 1 1 1 1 2 2 3 3 3 4 6 8 10 12 13 13 13 13 13 13
5 5 4 3 4 3 2 2 1 1 1 1 1 1 1 1 0 1 1 1 1 1 2 2 2 2 2 2 2 3 4 4 5 6 7 10 12 14 14 14 14 14 14
6 5 4 3 4 4 3 3 2 2 2 1 1 2 2 1 1 1 2 2 2 2 3 3 3 3 3 2 3 4 5 5 5 6 8 9 12 13 15 15 15 15 15
6 5 4 4 4 4 4 3 2 2 2 2 2 3 3 3 2 2 2 3 3 3 3 3 3 2 3 3 4 4 4 5 6 7 8 8 10 12 14 16 16 16 16
5 4 4 3 4 4 4 4 3 3 3 3 3 3 4 4 3 2 2 3 3 3 3 3 3 3 3 3 4 4 4 4 6 7 7 8 8 9 12 15 16 16 16
5 5 5 4 4 5 4 3 3 3 3 3 3 3 4 5 4 3 3 3 3 3 3 4 3 3 4 4 4 4 4 5 6 7 7 8 9 9 9 12 14 16 16
5 4 5 4 4 4 2 1 1 2 3 3 3 4 5 5 5 4 3 4 3 3 3 4 4 4 4 4 4 5 5 6 5 6 7 6 7 8 9 9 9 11 14
4 4 4 4 4 3 2 2 2 3 3 3 4 5 5 5 5 4 4 4 4 4 5 5 4 5 4 2 2 3 4 5 6 6 5 5 6 7 7 8 8 8 9
5 5 5 5 5 4 3 3 3 3 3 4 4 4 6 6 6 5 5 5 5 5 5 6 5 4 3 3 2 1 3 3 4 5 4 6 6 5 6 7 7 8 7
6 6 6 6 6 5 4 2 1 1 2 3 4 4 5 6 6 6 7 6 6 6 6 7 6 6 5 4 4 4 2 4 3 4 5 6 6 5 6 6 7 7 8
6 6 5 5 5 4 4 3 4 3 5 5 5 5 5 5 6 7 7 7 7 6 7 8 7 6 6 6 4 4 5 4 3 3 3 4 6 6 7 6 6 7 8
4 4 4 5 5 4 4 5 4 5 5 4 4 5 6 5 6 7 7 7 7 7 8 8 7 7 7 8 6 4 4 4 5 5 7 5 5 5 6 7 6 6 7
3 3 3 4 5 4 4 4 5 5 5 5 6 6 6 5 5 7 7 7 8 7 8 8 8 9 8 9 7 6 5 5 5 5 6 7 7 6 6 5 6 6 6
Wind_Direction
233 234 149 121 120 117 113 112 110 107 104 102 104 108 110 115 120 123 125 128 131 133 136 135 132 131 129 126 123 124 126 128 129 129 130 128 126 125 123 119 117 111 113
177 180 139 122 118 120 116 112 109 107 106 105 105 106 110 113 115 120 122 127 133 136 138 139 134 133 131 128 126 129 131 128 124 123 128 132 133 135 135 130 130 126 123
135 140 133 122 117 116 115 110 107 106 107 107 109 109 108 111 115 119 122 127 130 131 135 138 137 136 133 130 129 132 137 135 131 126 125 125 139 150 149 144 141 139 134
126 120 123 118 115 113 110 107 105 103 103 104 106 110 112 115 118 121 123 123 123 124 129 133 135 140 139 140 139 139 139 135 137 137 128 126 139 161 162 157 153 150 144
102 103 120 119 114 112 111 108 107 105 101 100 100 101 109 118 122 122 122 122 120 119 127 131 137 143 146 147 145 147 144 140 141 140 132 140 152 168 170 169 163 157 153
98 92 111 115 112 107 104 104 102 101 100 100 98 94 95 106 118 121 120 118 116 114 119 130 140 148 155 156 155 152 149 146 138 137 142 155 173 182 175 171 170 169 166
101 83 102 108 108 106 104 101 99 100 99 97 98 97 93 92 96 101 114 122 122 118 117 122 140 147 159 165 167 163 157 151 139 142 157 176 190 191 188 179 176 183 184
111 83 87 102 104 102 99 97 96 95 96 93 88 90 90 91 88 86 92 109 122 125 128 128 127 145 163 170 180 177 167 153 160 163 176 192 200 205 207 199 197 198 198
98 90 75 84 95 99 97 95 91 87 87 89 88 82 81 79 84 91 86 91 102 121 134 143 148 146 166 179 183 182 172 168 164 178 191 200 213 220 219 213 209 211 212
76 86 91 78 87 91 92 94 92 85 77 73 73 76 78 79 81 85 88 90 97 97 132 165 156 152 170 187 188 178 179 178 184 194 202 212 223 227 230 225 221 222 222
114 114 128 112 91 94 101 100 94 86 77 71 63 64 68 60 67 78 76 97 96 91 120 201 187 166 185 202 199 190 174 185 195 205 212 225 228 231 232 232 233 234 230
210 217 196 171 152 114 110 99 88 85 78 71 61 55 53 55 50 56 75 120 155 150 225 243 227 196 166 180 206 190 179 194 201 215 223 234 235 236 236 235 236 236 237
212 222 217 199 180 155 135 116 92 79 70 61 59 56 52 51 38 30 42 347 218 185 210 266 243 173 158 171 188 193 200 198 213 227 235 241 242 243 243 240 239 238 240
212 225 231 204 187 178 159 152 143 111 77 50 26 55 71 50 14 352 333 284 206 202 197 204 210 213 216 215 208 208 216 213 225 234 242 247 248 248 250 248 245 243 244
216 225 226 217 196 185 170 176 163 180 193 232 248 246 176 174 262 264 242 261 241 220 204 205 210 214 225 227 229 233 234 231 238 244 248 252 253 252 253 253 251 248 247
217 220 217 217 207 187 181 184 197 208 207 219 241 247 230 210 228 258 261 249 240 235 224 213 215 225 232 233 250 241 237 234 242 246 250 253 255 257 257 257 256 253 252
215 216 215 216 213 199 195 200 206 215 209 217 234 241 239 235 228 228 254 256 247 251 236 226 223 219 242 246 254 253 245 237 240 245 249 250 253 258 260 260 259 258 256
205 212 219 217 212 206 202 207 215 221 219 225 232 237 240 238 233 226 237 254 255 251 227 226 227 234 247 245 252 257 254 248 247 244 246 246 247 252 257 259 261 261 262
199 205 211 214 214 208 206 211 219 223 228 231 235 239 242 239 236 228 234 244 251 240 238 238 232 227 244 252 253 255 253 249 249 250 246 245 243 246 249 257 260 261 265
199 203 210 219 221 204 197 209 234 244 243 237 234 240 241 241 238 230 233 239 239 244 245 239 238 233 234 244 266 269 261 256 248 242 244 247 244 244 244 251 255 259 263
200 204 209 215 224 192 187 196 217 243 248 247 239 238 239 241 239 229 240 239 234 236 238 238 240 235 235 228 264 286 278 256 248 243 242 240 242 240 239 245 248 253 260
207 211 209 220 225 207 202 202 207 227 244 245 245 246 240 240 238 238 230 236 235 238 240 237 232 233 238 211 208 270 287 288 255 243 243 240 241 237 241 246 246 249 253
213 214 216 224 226 217 205 200 237 270 280 266 260 254 245 241 239 236 234 234 235 230 238 236 227 225 235 227 208 202 225 248 284 250 238 242 241 243 245 243 245 249 254
222 221 219 228 226 218 200 200 215 237 251 257 259 260 263 249 245 242 238 237 238 236 236 237 232 227 223 230 225 224 230 229 249 277 261 244 246 249 242 247 247 248 252
225 223 226 231 229 219 213 207 217 241 252 265 268 270 270 261 250 246 241 238 240 240 239 239 235 229 226 228 226 225 238 246 241 251 274 274 261 248 243 240 242 245 248
244 229 229 226 229 223 221 217 217 235 252 266 270 272 274 271 260 251 244 239 241 241 240 239 235 232 232 230 231 225 225 229 233 237 258 269 272 269 256 245 241 240 241
Height
1488 1489 1491 1492 1494 1495 1497 1498 1499 1501 1502 1503 1504 1505 1506 1507 1508 1509 1510 1511 1512 1513 1514 1514 1515 1516 1517 1518 1518 1519 1519 1520 1520 1520 1521 1521 1521 1522 1522 1523 1523 1523 1524
1488 1489 1491 1492 1494 1495 1497 1498 1500 1501 1502 1503 1504 1505 1506 1507 1508 1509 1510 1511 1512 1513 1513 1514 1515 1516 1517 1517 1518 1519 1519 1520 1520 1520 1521 1521 1522 1522 1522 1523 1523 1524 1524
1488 1489 1491 1492 1494 1495 1497 1498 1500 1501 1502 1503 1504 1505 1506 1507 1508 1508 1509 1510 1511 1512 1513 1514 1514 1515 1516 1517 1518 1518 1519 1519 1520 1520 1521 1521 1522 1522 1522 1523 1523 1524 1524
1488 1489 1491 1492 1494 1495 1497 1498 1499 1500 1501 1502 1503 1504 1505 1506 1507 1508 1509 1510 1510 1511 1512 1513 1514 1515 1515 1516 1517 1518 1518 1519 1519 1520 1520 1521 1521 1522 1522 1523 1523 1524 1524
1488 1489 1491 1492 1494 1495 1496 1498 1499 1500 1501 1501 1502 1503 1504 1505 1506 1507 1508 1509 1510 1510 1511 1512 1513 1514 1514 1515 1516 1517 1517 1518 1519 1519 1520 1520 1521 1521 1522 1522 1523 1523 1524
1488 1489 1491 1492 1493 1495 1496 1497 1498 1499 1500 1501 1502 1502 1503 1504 1505 1506 1507 1507 1508 1509 1510 1511 1512 1513 1513 1514 1515 1516 1516 1517 1518 1518 1519 1520 1520 1521 1521 1522 1522 1523 1523
1488 1489 1490 1491 1493 1494 1495 1496 1497 1498 1499 1500 1500 1501 1502 1503 1504 1504 1505 1506 1507 1508 1508 1509 1510 1511 1512 1513 1514 1514 1515 1516 1516 1517 1518 1519 1519 1520 1521 1521 1522 1522 1522
1488 1489 1490 1491 1492 1493 1494 1495 1496 1497 1497 1498 1499 1500 1501 1501 1502 1503 1504 1504 1505 1506 1507 1508 1508 1509 1510 1511 1512 1513 1513 1514 1515 1516 1516 1517 1518 1519 1519 1520 1520 1521 1521
1487 1488 1489 1490 1491 1492 1493 1493 1494 1495 1496 1497 1497 1498 1499 1500 1500 1501 1502 1503 1503 1504 1505 1506 1506 1507 1508 1509 1510 1511 1511 1512 1513 1514 1515 1515 1516 1517 1517 1518 1518 1519 1519
1486 1487 1488 1489 1490 1490 1491 1492 1493 1493 1494 1495 1496 1496 1497 1498 1498 1499 1500 1501 1501 1502 1503 1503 1504 1505 1506 1507 1507 1508 1509 1510 1511 1511 1512 1513 1514 1514 1515 1515 1516 1516 1517
1485 1486 1486 1487 1488 1489 1489 1490 1491 1492 1492 1493 1494 1494 1495 1496 1496 1497 1498 1498 1499 1499 1500 1501 1502 1502 1503 1504 1505 1506 1507 1507 1508 1509 1510 1511 1511 1512 1512 1513 1513 1514 1514
1482 1483 1484 1485 1486 1486 1487 1488 1489 1489 1490 1491 1491 1492 1493 1493 1494 1495 1495 1496 1496 1497 1498 1498 1499 1500 1501 1501 1502 1503 1504 1504 1505 1506 1507 1508 1508 1509 1509 1509 1510 1511 1511
1480 1481 1482 1483 1483 1484 1485 1485 1486 1487 1487 1488 1489 1489 1490 1490 1491 1492 1492 1493 1494 1494 1495 1496 1496 1497 1497 1498 1499 1499 1500 1501 1502 1502 1503 1504 1505 1505 1506 1506 1506 1507 1507
1477 1478 1479 1480 1481 1481 1482 1483 1483 1484 1485 1485 1486 1486 1487 1487 1488 1488 1489 1490 1490 1491 1491 1492 1493 1493 1494 1495 1495 1496 1497 1497 1498 1499 1500 1500 1501 1502 1502 1502 1503 1503 1504
1474 1475 1476 1477 1478 1479 1480 1480 1481 1481 1482 1482 1483 1483 1483 1484 1484 1485 1485 1486 1487 1487 1488 1488 1489 1490 1490 1490 1491 1492 1493 1493 1494 1495 1495 1496 1497 1498 1498 1499 1499 1499 1500
1471 1472 1473 1474 1475 1476 1477 1477 1478 1478 1479 1479 1479 1480 1480 1480 1481 1481 1482 1482 1483 1483 1484 1484 1485 1485 1486 1486 1487 1487 1488 1489 1490 1490 1491 1492 1492 1493 1494 1494 1495 1495 1495
1467 1469 1470 1471 1472 1473 1474 1475 1475 1475 1475 1476 1476 1476 1477 1477 1477 1477 1478 1478 1479 1479 1480 1480 1481 1481 1481 1482 1482 1483 1483 1484 1485 1485 1486 1487 1487 1488 1489 1489 1490 1490 1490
1464 1465 1467 1468 1469 1470 1471 1471 1472 1472 1472 1472 1472 1473 1473 1473 1473 1474 1474 1474 1475 1475 1475 1476 1477 1476 1477 1477 1477 1478 1478 1479 1479 1480 1481 1481 1482 1483 1483 1484 1485 1485 1485
1460 1462 1463 1464 1465 1466 1467 1468 1468 1468 1468 1468 1468 1468 1469 1469 1469 1469 1469 1470 1471 1471 1471 1471 1471 1472 1472 1472 1472 1472 1473 1473 1474 1475 1475 1476 1476 1477 1478 1478 1479 1480 1480
1456 1458 1459 1460 1461 1462 1463 1464 1464 1464 1464 1464 1464 1464 1464 1464 1465 1465 1465 1465 1466 1466 1467 1467 1467 1467 1467 1468 1467 1467 1467 1467 1468 1469 1469 1470 1470 1471 1472 1472 1473 1474 1474
1452 1454 1455 1456 1457 1458 1459 1459 1459 1459 1460 1460 1460 1460 1460 1460 1460 1460 1460 1460 1461 1461 1461 1462 1462 1462 1462 1463 1462 1461 1461 1461 1461 1462 1463 1464 1464 1465 1466 1466 1467 1467 1468
1448 1450 1451 1452 1453 1454 1455 1455 1455 1455 1455 1455 1455 1455 1455 1454 1454 1454 1454 1454 1455 1455 1456 1456 1457 1456 1457 1458 1458 1457 1455 1454 1454 1455 1456 1457 1458 1459 1459 1460 1460 1461 1461
1443 1445 1447 1448 1449 1449 1450 1451 1451 1451 1450 1450 1450 1449 1449 1449 1449 1449 1449 1449 1449 1450 1449 1450 1451 1451 1451 1452 1454 1455 1453 1449 1448 1448 1449 1450 1451 1452 1452 1453 1454 1454 1455
1439 1441 1442 1444 1444 1445 1446 1446 1446 1445 1444 1444 1444 1444 1443 1443 1443 1443 1443 1443 1443 1443 1443 1444 1445 1446 1446 1446 1447 1448 1449 1448 1447 1442 1442 1443 1445 1445 1446 1446 1446 1447 1448
1435 1437 1438 1439 1440 1440 1441 1441 1441 1440 1439 1439 1439 1438 1437 1437 1437 1437 1437 1437 1437 1437 1437 1437 1438 1439 1440 1440 1440 1441 1442 1443 1442 1441 1436 1436 1437 1437 1438 1439 1439 1440 1441
1432 1433 1434 1434 1435 1436 1436 1436 1436 1435 1434 1433 1433 1432 1431 1431 1430 1430 1430 1430 1430 1430 1430 1430 1431 1432 1433 1434 1434 1434 1435 1436 1435 1435 1433 1430 1429 1430 1432 1432 1432 1433 1434